Header for Extended Forecast Station List Page

Search by: ID | Name | Date | Parm | Value | Avg | % Avg
Sort by: ID | Name | Date | Parm | Value | Avg | % Avg

Enter search or view all records.

Click on id for station plot
#IDNameDateParmValueAvg% Avg
0LYDM8KOOTENAI-LIBBY DAM01-21-2015INFLOW (KAF)1527166792
1LEOI1KOOTENAI-AT LEONIA01-21-2015DISCHARGE (KAF)1815218083
2BFEI1KOOTENAI-AT BONNERS FERRY01-21-2015STAGE (FT)MMM
3FCFM8NF FLATHEAD-NEAR COLUMBIA FALLS01-21-2015DISCHARGE (KAF)592559106
4WGCM8MF FLATHEAD-NEAR WEST GLACIER01-21-2015DISCHARGE (KAF)539529102
5HHWM8SF FLATHEAD-HUNGRY HORSE DAM01-21-2015INFLOW (KAF)74677996
6CFMM8FLATHEAD-AT COLUMBIA FALLS01-21-2015DISCHARGE (KAF)23821954122
7DLGM8CLARK FORK-AT DEER LODGE01-21-2015DISCHARGE (KAF)606888
8DRMM8CLARK FORK-NR DRUMMOND01-21-2015DISCHARGE (KAF)169MM
9RCCM8ROCK CREEK-NEAR CLINTON01-21-2015DISCHARGE (KAF)12392133
10BONM8BLACKFOOT-NEAR BONNER01-21-2015DISCHARGE (KAF)362340106
11ABOM8CLARK FORK-ABOVE MISSOULA01-21-2015DISCHARGE (KAF)680662103
12BITM8BITTERROOT-NEAR MISSOULA01-21-2015DISCHARGE (KAF)477465103
13BELM8CLARK FORK-BELOW MISSOULA01-21-2015DISCHARGE (KAF)11581133102
14STRM8ST. REGIS-NEAR ST. REGIS01-21-2015DISCHARGE (KAF)171163105
15SRGM8CLARK FORK-AT ST REGIS01-21-2015DISCHARGE (KAF)1581159699
16KERM8FLATHEAD-KERR DAM01-21-2015INFLOW (KAF)28982518115
17NOXM8CLARK FORK-NOXON RAPIDS DAM01-21-2015INFLOW (KAF)4568511889
18CABI1CLARK FORK-CABINET GORGE DAM01-21-2015INFLOW (KAF)5094537395
19PRTI1PRIEST-NEAR PRIEST RIVER01-21-2015DISCHARGE (KAF)44245398
20ALFW1PEND OREILLE-ALBENI FALLS DAM01-21-2015INFLOW (KAF)5792655588
21HOPI1PEND OREILLE-PEND OREILLE LAKE NR HOPE01-21-2015LAKE ELEVATION (FT)MMM
22COEI1COEUR D ALENE-COEUR D ALENE LAKE01-21-2015INFLOW (KAF)2117237389
23SPOW1SPOKANE-AT SPOKANE01-21-2015DISCHARGE (KAF)2035MM
24LLKW1SPOKANE-AT LONGLAKE01-21-2015INFLOW (KAF)2336281283
25SATI1ST MARIES-NEAR SANTA01-21-2015DISCHARGE (KAF)147136108
26SJMI1ST JOE-AT ST MARIES01-21-2015STAGE (FT)MMM
27CIBW1COLUMBIA-AT INTL BOUNDARY01-21-2015DISCHARGE (KAF)18530MM
28LAUW1KETTLE-AT LAURIER01-21-2015DISCHARGE (KAF)963784123
29GCDW1COLUMBIA-GRAND COULEE DAM01-21-2015INFLOW (KAF)2192821221103
30CHJW1COLUMBIA-CHIEF JOSEPH DAM01-21-2015INFLOW (KAF)244062472899
31TONW1OKANOGAN-NEAR TONASKET01-21-2015DISCHARGE (KAF)682582117
32PATW1METHOW-NEAR PATEROS01-21-2015DISCHARGE (KAF)398300133
33WELW1COLUMBIA-WELLS DAM01-21-2015INFLOW (KAF)2546725583100
34CHDW1CHELAN-LAKE CHELAN DAM01-21-2015INFLOW (KAF)505377134
35RRHW1COLUMBIA-ROCKY REACH DAM01-21-2015INFLOW (KAF)2623026000101
36ARDW1ENTIAT-NEAR ARDENVOIR01-21-2015DISCHARGE (KAF)9164142
37PESW1WENATCHEE-AT PESHASTIN01-21-2015DISCHARGE (KAF)731645113
38WANW1COLUMBIA-WANAPUM DAM01-21-2015INFLOW (KAF)2700324363111
39PRWW1COLUMBIA-PRIEST RAPIDS DAM01-21-2015INFLOW (KAF)2700124658110
40KEDW1YAKIMA-KEECHELUS LAKE01-21-2015INFLOW (KAF)9879124
41KADW1KACHESS-KACHESS DAM01-21-2015INFLOW (KAF)8576112
42EASW1YAKIMA-AT EASTON01-21-2015DISCHARGE (KAF)128100129
43CLUW1CLE ELUM-CLE ELUM LAKE01-21-2015INFLOW (KAF)214206104
44TNAW1TEANAWAY-BELOW FORKS01-21-2015DISCHARGE (KAF)126115109
45UMTW1YAKIMA-AT UMTANUM01-21-2015DISCHARGE (KAF)573505114
46BUDW1BUMPING-BUMPING LAKE DAM01-21-2015INFLOW (KAF)6659111
47CLFW1NACHES-NEAR CLIFFDEL01-21-2015DISCHARGE (KAF)244225108
48RILW1TIETON-RIMROCK LAKE NEAR RIMROCK01-21-2015INFLOW (KAF)131110119
49NACW1NACHES-NEAR NACHES01-21-2015DISCHARGE (KAF)356268133
50PARW1YAKIMA-NEAR PARKER01-21-2015DISCHARGE (KAF)692616112
51KIOW1YAKIMA-AT KIONA01-21-2015DISCHARGE (KAF)95396099
52IPDI1HENRYS FORK-ISLAND PARK DAM01-21-2015INFLOW (KAF)11914483
53CHEI1FALL RIVER-NEAR CHESTER01-21-2015DISCHARGE (KAF)223178125
54ANTI1HENRYS FORK-AT ST. ANTHONY01-21-2015DISCHARGE (KAF)498471106
55TEAI1TETON-NEAR ST. ANTHONY01-21-2015DISCHARGE (KAF)175150117
56REXI1HENRYS FORK-AT REXBURG01-21-2015DISCHARGE (KAF)602543111
57JLKW4SNAKE-JACKSON LAKE AT DAM01-21-2015INFLOW (KAF)236223106
58JKSW4SNAKE-NEAR JACKSON01-21-2015DISCHARGE (KAF)546485113
59ALPW4SNAKE-NEAR ALPINE01-21-2015DISCHARGE (KAF)780659118
60PLDI1SF SNAKE-PALISADES DAM01-21-2015INFLOW (KAF)12261095112
61HEII1SNAKE-NEAR HEISE01-21-2015DISCHARGE (KAF)12681150110
62RIDI1WILLOW CREEK-RIRIE DAM01-21-2015INFLOW (KAF)5635163
63SIFI1SNAKE-AB EAGLE ROCK NR IDAHO FALLS01-21-2015DISCHARGE (KAF)14791297114
64SHYI1SNAKE-NEAR SHELLEY01-21-2015DISCHARGE (KAF)14111328106
65SNAI1SNAKE-AT BLACKFOOT01-21-2015DISCHARGE (KAF)12361168106
66BFTI1SNAKE-NEAR BLACKFOOT01-21-2015DISCHARGE (KAF)12211198102
67PIHI1PORTNEUF-AT POCATELLO01-21-2015DISCHARGE (KAF)699871
68AFRI1SNAKE-AMERICAN FALLS RESERVOIR01-21-2015INFLOW (KAF)1843190397
69MILI1SNAKE-AT MILNER01-21-2015DISCHARGE (KAF)15976421
70HOTI1BRUNEAU-NEAR HOT SPRINGS01-21-2015DISCHARGE (KAF)116110106
71SWAI1SNAKE-BELOW SWAN FALLS01-21-2015DISCHARGE (KAF)1789272666
72HWRI1BIG LOST-AT HOWELL RANCH NEAR CHILLY01-21-2015DISCHARGE (KAF)164041
73MACI1BIG LOST-MACKAY RESERVOIR NEAR MACKAY01-21-2015INFLOW (KAF)213069
74HALI1BIG WOOD-AT HAILEY01-21-2015DISCHARGE (KAF)858797
75MAGI1BIG WOOD-MAGIC DAM01-21-2015INFLOW (KAF)12414486
76LWRI1LITTLE WOOD-LITTLE WOOD DAM01-21-2015INFLOW (KAF)324671
77OWYO3OWYHEE-BELOW OWYHEE DAM01-21-2015INFLOW (KAF)364336109
78ARAI1SF BOISE-ANDERSON RANCH DAM01-21-2015INFLOW (KAF)27527899
79LUCI1BOISE-LUCKY PEAK DAM01-21-2015INFLOW (KAF)738MM
80BIGI1BOISE-AT GLENWOOD BRIDGE01-21-2015DISCHARGE (KAF)330228145
81PARI1BOISE-NEAR PARMA01-21-2015DISCHARGE (KAF)418343122
82WRMO3MALHEUR-WARM SPRINGS DAM01-21-2015INFLOW (KAF)8476111
83BERO3MALHEUR-AGENCY VALLEY DAM01-21-2015INFLOW (KAF)4949101
84BULO3BULLY CREEK-BULLY CREEK DAM01-21-2015INFLOW (KAF)289300
85VALO3MALHEUR-NEAR VALE01-21-2015DISCHARGE (KAF)156225
86CSDI1NF PAYETTE-CASCADE DAM01-21-2015INFLOW (KAF)24925399
87DEDI1DEADWOOD-NEAR LOWMAN01-21-2015INFLOW (KAF)5452104
88EMMI1PAYETTE-NEAR EMMETT01-21-2015DISCHARGE (KAF)66878685
89WSRI1WEISER-NEAR WEISER01-21-2015DISCHARGE (KAF)414369112
90WEII1SNAKE-AT WEISER01-21-2015DISCHARGE (KAF)3521493171
91BRNI1SNAKE-BROWNLEE DAM01-21-2015INFLOW (KAF)3969528875
92WHBI1SALMON-AT WHITEBIRD01-21-2015DISCHARGE (KAF)22202177102
93TRYO3GRANDE RONDE-TROY01-21-2015DISCHARGE (KAF)91396495
94ANAW1SNAKE-NEAR ANATONE01-21-2015DISCHARGE (KAF)7540941280
95ORFI1CLEARWATER-AT OROFINO01-21-2015DISCHARGE (KAF)27892536110
96DWRI1NF CLEARWATER-DWORSHAK DAM01-21-2015INFLOW (KAF)1794181299
97SPDI1CLEARWATER-AT SPALDING01-21-2015DISCHARGE (KAF)4256439697
98LGDW1SNAKE-LOWER GRANITE DAM01-21-2015INFLOW (KAF)117961381985
99LGSW1SNAKE-LITTLE GOOSE DAM01-21-2015INFLOW (KAF)117901387985
100LMNW1SNAKE-LOWER MONUMENTAL DAM01-21-2015INFLOW (KAF)119821413885
101IHDW1SNAKE-ICE HARBOR DAM01-21-2015INFLOW (KAF)119821397086
102TCHW1WALLA WALLA-NEAR TOUCHET01-21-2015DISCHARGE (KAF)222219101
103MCDW1COLUMBIA-MCNARY DAM01-21-2015INFLOW (KAF)400634093798
104GIBO3UMATILLA-NEAR GIBBON01-21-2015DISCHARGE (KAF)9281113
105PDTO3UMATILLA-AT PENDLETON01-21-2015DISCHARGE (KAF)227195116
106MYKO3MCKAY CREEK-NEAR PILOT ROCK01-21-2015DISCHARGE (KAF)6941168
107UMAO3UMATILLA-NEAR UMATILLA01-21-2015DISCHARGE (KAF)231178130
108MONO3NF JOHN DAY-AT MONUMENT01-21-2015DISCHARGE (KAF)568534106
109SERO3JOHN DAY-AT SERVICE CK01-21-2015DISCHARGE (KAF)798790101
110JDAO3COLUMBIA-JOHN DAY DAM01-21-2015INFLOW (KAF)422094332397
111MODO3DESCHUTES-AT MOODY NR BIGGS01-21-2015DISCHARGE (KAF)1574159899
112TDAO3COLUMBIA-THE DALLES DAM01-21-2015INFLOW (KAF)428164515295
113PITW1KLICKITAT-NEAR PITT01-21-2015DISCHARGE (KAF)48749998
114HODO3HOOD-NEAR TUCKER BRIDGE01-21-2015DISCHARGE (KAF)293287102
115UNDW1WHITE SALMON-NEAR UNDERWOOD01-21-2015DISCHARGE (KAF)31735190
116BONO3COLUMBIA-BONNEVILLE DAM01-21-2015INFLOW (KAF)43907MM